Preview of NWS' New Version of Forecast
This preview is not operational and should not be used for support decisions.

Regional Weather Roundup (RWR)

Issued by National Weather Service (NWS)

                            
000
ASUS42 KTBW 251316
RWRFL 
FLORIDA REGIONAL WEATHER ROUNDUP
NATIONAL WEATHER SERVICE TAMPA BAY RUSKIN FL
900 AM EDT SAT MAY 25 2019

NOTE: "FAIR" INDICATES FEW OR NO CLOUDS BELOW 12,000 FEET WITH NO
SIGNIFICANT WEATHER AND/OR OBSTRUCTIONS TO VISIBILITY.

FLZ001>010-012>015-112-114-115-251400-
PANHANDLE FLORIDA
  
CITY           SKY/WX    TMP DP  RH WIND       PRES   REMARKS
PENSACOLA      FAIR      79  75  87 N8        30.15S                  
PENSACOLA NAS  FAIR      79  75  87 N5        30.15R                  
MILTON NAS     FAIR      77  73  87 VRB5      30.17R                  
CRESTVIEW      FAIR      77  71  82 CALM      30.18R                  
DUKE FIELD     FAIR      73  73 100 N5        30.16R                  
VALPARAISO     FAIR      78  72  84 N7        30.16R                  
MARY ESTHER    FAIR      76  73  92 N7        30.15R                  
PANAMA CITY    FAIR      77  72  84 NW8       30.15R                  
APALACHICOLA   FAIR      79  73  82 N5        30.14R                  

STATION/POSITION SKY/WX   TEMP    WIND        PRES    WAVE   SWELL
                          AIR SEA DIR/SP/G            HT/PER HT/PER
                          (F)     (DEG/KT/KT) (MB)    (FT/S) (FT/S)
30.1N   87.6W                                   N/A     3/ 7
29.2N   88.2W                     200/  4/  4 1021.2R   4/ 7   3/ 7
PANAMA CITY BEAC           76 82  340/  8/ 10 1021.3R
TOWER C          NOT AVBL

$$
FLZ011-016>038-118-127-128-134-139-239-251400-
NORTH FLORIDA
  
CITY           SKY/WX    TMP DP  RH WIND       PRES   REMARKS
MARIANNA       FAIR      78  73  84 N6        30.15R                  
TALLAHASSEE    FAIR      79  66  64 N7        30.16R                  
PERRY          FAIR      80  72  76 CALM      30.16R                  
LIVE OAK       SUNNY     77  68  73 CALM      30.16R                  
CROSS CITY     FAIR      78  71  78 S3        30.15R                  
LAKE CITY      FAIR      75  66  73 W6        30.17R                  
GAINESVILLE    FAIR      80  68  66 VRB5      30.18R                  
WILLISTON      FAIR      76  68  78 SW3       30.15S                  
PALATKA        FAIR     N/A N/A N/A W5        30.15R                  
MAYPORT NAS    FAIR      79  68  69 W6        30.14R                  
JACKSONVILLE   FAIR      77  68  73 W6        30.15R                  
JAX NAS        FAIR      78  67  68 W6        30.15R                  
JAX CECIL      SUNNY     79  70  73 SW5       30.15R                  
FERNANDINA BEA FAIR      77  68  73 W9        30.15R                  
ST AUGUSTINE   FAIR      77  71  82 W7        30.16R                  
PALM COAST     SUNNY     75  70  83 CALM      30.15R                  

STATION/POSITION SKY/WX   TEMP    WIND        PRES    WAVE   SWELL
                          AIR SEA DIR/SP/G            HT/PER HT/PER
                          (F)     (DEG/KT/KT) (MB)    (FT/S) (FT/S)
SHELL POINT      NOT AVBL
KEATON BEACH               81     250/  5/  6 1021.2R
CEDAR KEY                  78     180/  6/  7 1020.2R
FERNANDINA                 78 83  250/  6/ 11 1021.7R
30.7N   81.3W                 80                N/A     2/ 8
MAYPORT                    78 82  280/  6/  8 1021.0R
31.4N   80.9W              78 78  260/ 12/ 14 1020.7R   2/ 7   2/ 7
ST AUGUSTINE               79 79  250/  4/  6 1021.1R

$$
FLZ040-043>046-052-053-057-058-063-144-251400-
INTERIOR CENTRAL FLORIDA
  
CITY           SKY/WX    TMP DP  RH WIND       PRES   REMARKS
OCALA          FAIR      75  69  81 CALM      30.16R                  
LEESBURG       FAIR      77  68  73 S3        30.15R                  
SANFORD        FAIR      79  69  71 VRB3      30.13S                  
ORLANDO EXEC   FAIR      79  68  69 CALM      30.13S                  
ORLANDO INTL   FAIR      78  68  71 E5        30.13R                  
KISSIMMEE      FAIR      78  69  73 VRB3      30.14R                  
WINTER HAVEN   FAIR      78  69  73 E5        30.14R                  
LAKELAND       SUNNY     77  68  73 NE5       30.14R                  
BARTOW         SUNNY     77  70  78 E7        30.12R                  
SEBRING        FAIR      77  68  74 E7        30.12S                  
OKEECHOBEE     FAIR      73  68  83 E3        30.11S                  

$$
FLZ041-047-054-059-064-141-147-251400-
EAST CENTRAL FLORIDA
  
CITY           SKY/WX    TMP DP  RH WIND       PRES   REMARKS
ORMOND BEACH   SUNNY     75  72  88 CALM      30.15R                  
DAYTONA BEACH  FAIR      77  71  82 S5        30.14R                  
DELAND         FAIR      77  68  73 CALM      30.14R                  
NEW SMYRNA BEA SUNNY     73  68  83 CALM      30.14S                  
TITUSVILLE     SUNNY     81  70  69 CALM      30.13R                  
CAPE CANAVERAL FAIR      80  61  53 SE3       30.11R                  
PATRICK AFB    FAIR      80  71  73 E7        30.12R                  
MELBOURNE      FAIR      80  69  69 E8        30.12R                  
VERO BEACH     FAIR      79  67  66 NE12      30.12R                  
FT PIERCE      FAIR      79  66  64 E8        30.11R                  
STUART         MOSUNNY   81  66  61 E12G17    30.12R                  

STATION/POSITION SKY/WX   TEMP    WIND        PRES    WAVE   SWELL
                          AIR SEA DIR/SP/G            HT/PER HT/PER
                          (F)     (DEG/KT/KT) (MB)    (FT/S) (FT/S)
28.5N   80.2W              78     100/  4/  6 1020.6R   3/ 7   3/ 7
28.9N   78.5W              78 79  120/  2/  4 1021.0    3/ 7   3/ 7
TRIDENT PIER               79 81   70/  4/  7 1021.3R
28.4N   80.5W                 80                N/A     2/ 8
27.5N   80.2W                 77                N/A     3/ 8

$$
FLZ050-056-061-142-242-148-248-149-249-151-251-155-255-
160-260-251400-
WEST CENTRAL FLORIDA
  
CITY           SKY/WX    TMP DP  RH WIND       PRES   REMARKS
CRYSTAL RIVER  FAIR      75  68  78 CALM      30.15R                  
INVERNESS      FAIR      77  72  83 CALM      30.15R                  
BROOKSVILLE    FAIR      77  69  76 VRB3      30.14R                  
CLEARWATER AIR FAIR      77  64  65 SE6       30.13R                  
ST PETE CLEARW FAIR      77  67  71 E6        30.12R                  
TAMPA INTL     FAIR      78  67  68 VRB6      30.13R                  
TAMPA EXEC     FAIR      77  68  73 E3        30.14R                  
PLANT CITY     FAIR      79  70  73 NE5       30.15R                  
MACDILL AFB    FAIR      78  67  69 SE7       30.12R                  
PETER O KNIGHT CLOUDY    79  70  73 E6        30.13R                  
ST PETERSBURG  FAIR      75  68  78 E9        30.11R                  
SARASOTA       FAIR      77  66  68 E8        30.10R                  
VENICE         FAIR      77  68  73 E8        30.11R                  

STATION/POSITION SKY/WX   TEMP    WIND        PRES    WAVE   SWELL
                          AIR SEA DIR/SP/G            HT/PER HT/PER
                          (F)     (DEG/KT/KT) (MB)    (FT/S) (FT/S)
27.3N   84.2W                 80                N/A     3/ 5
CLEARWATER BEACH           77 84  110/  7/  9 1020.0R
MIDDLE TAMPA BAY           75     100/  7/  8 1020.0R
VENICE                     72 82   60/  5/  6 1018.9R

$$
FLZ066-069-070-075>078-162-262-165-265-251400-
SOUTHWEST FLORIDA AND KEYS
  
CITY           SKY/WX    TMP DP  RH WIND       PRES   REMARKS
PUNTA GORDA    FAIR      75  67  76 E9        30.12R                  
FT MYERS       FAIR      76  67  73 E9        30.09R                  
SOUTHWEST INTL FAIR      76  66  71 E9        30.09S                  
NAPLES         FAIR      76  66  71 NE12      30.08R                  
MARCO ISLAND   FAIR      76  66  71 E8        30.09R                  
IMMOKALEE      FAIR      77  68  73 E8        30.08R                  
MARATHON       PTSUNNY   83  66  56 E13       30.04R                  
KEY WEST NAS   FAIR      82  66  58 E14       30.05R                  
KEY WEST INTL  FAIR      80  66  62 E14G22    30.05R                  

STATION/POSITION SKY/WX   TEMP    WIND        PRES    WAVE   SWELL
                          AIR SEA DIR/SP/G            HT/PER HT/PER
                          (F)     (DEG/KT/KT) (MB)    (FT/S) (FT/S)
NAPLES                     76 82              1018.5R
DRY TORTUGAS               79      80/ 19/ 22 1017.5R
SAND KEY                   79                 1017.2R
SOMBRERO KEY               79                 1016.6R

$$
FLZ067-068-071>074-168-172>174-251400-
SOUTHEAST FLORIDA 
  
CITY           SKY/WX    TMP DP  RH WIND       PRES   REMARKS
W PALM BEACH   FAIR      76  65  68 E13       30.10R                  
BOCA RATON     MOSUNNY   81  66  61 E14       30.09R                  
FT LAUDER-EXEC FAIR      80  65  59 NE13      30.08R                  
FT LAUDERDALE  PTSUNNY   79  66  64 E13       30.07R                  
POMPANO BEACH  FAIR      80  65  59 E14       30.09R                  
PEMBROKE PINES PTSUNNY   80  66  62 E13       30.09R                  
OPA LOCKA      FAIR      81  66  60 E14       30.08R                  
MIAMI          PTSUNNY   80  66  62 E12       30.08R                  
WEST KENDALL   FAIR      82  63  52 E16       30.07R                  
HOMESTEAD      FAIR      80  65  59 NE12      30.06R                  

STATION/POSITION SKY/WX   TEMP    WIND        PRES    WAVE   SWELL
                          AIR SEA DIR/SP/G            HT/PER HT/PER
                          (F)     (DEG/KT/KT) (MB)    (FT/S) (FT/S)
PORT EVERGLADES            78      70/  9/ 14 1018.4R
VIRGINIA KEY               79 81   70/ 11/ 15 1017.6R
LAKE WORTH                 77 80              1020.2R
SETTLEMENT POINT           76      70/ 13/ 15 1019.4R

$$